Weather History for Moose Lake, MN

Change the Weather History Date:

Thursday, December 27, 2012

  Actual Average Record
Temperature  
Mean Temperature 5 °F -  
Max Temperature 23 °F 20 °F 41 °F (2003)
Min Temperature -13 °F 1 °F -28 °F (1964)
Degree Days  
Heating Degree Days 60    
Moisture  
Dew Point 5 °F    
Average Humidity 70    
Maximum Humidity 84    
Minimum Humidity 54    
Precipitation  
Precipitation 0.00 in - - ()
Sea Level Pressure  
Sea Level Pressure 30.19 in    
Wind  
Wind Speed 0 mph (SE)    
Max Wind Speed 6 mph    
Max Gust Speed -    
Visibility 8 miles    
Events Snow    
Averages and records for this station are not official NWS values.
T = Trace of Precipitation, MM = Missing Value Source: NWS Daily Summary

Daily Weather History Graph

Daily Weather History Graph

Search for Another Location

Airport:

Trip Planner

Search our weather history database for the weather conditions in past years. The results will help you decide how hot, cold, wet, or windy it might be!

Date:

Astronomy

Dec. 27, 2012 Rise Set
Actual Time 7:54 AM CST 4:31 PM CST
Civil Twilight 7:19 AM CST 5:06 PM CST
Nautical Twilight 6:40 AM CST 5:44 PM CST
Astronomical Twilight 6:04 AM CST 6:21 PM CST
Moon 4:16 PM CST (12/27) 7:03 AM CST (12/27)
Length of Visible Light 9h 46m
Length of Day
8h 36m
Full, 100% of the Moon is Illuminated
Dec 27
Full
Dec 28
Full
Jan 4
Last Quarter
Jan 11
New
Jan 18
First Quarter

Hourly Weather History & Observations

Time (CST) Temp. Windchill Dew Point Humidity Pressure Visibility Wind Dir Wind Speed Gust Speed Precip Events Conditions
12:14 AM 6.8 °F - -0.4 °F 72% 30.21 in 10.0 mi Calm Calm - N/A   Overcast
12:31 AM 6.8 °F - -0.4 °F 72% 30.21 in 10.0 mi Calm Calm - N/A   Mostly Cloudy
12:52 AM 5.0 °F - -2.2 °F 72% 30.21 in 10.0 mi Calm Calm - N/A   Scattered Clouds
1:11 AM 3.2 °F - -4.0 °F 72% 30.21 in 10.0 mi Calm Calm - N/A   Clear
1:33 AM 8.6 °F - 3.2 °F 79% 30.22 in 10.0 mi Calm Calm - N/A   Mostly Cloudy
1:51 AM 3.2 °F - -4.0 °F 72% 30.23 in 10.0 mi Calm Calm - N/A   Mostly Cloudy
2:33 AM 8.6 °F - 3.2 °F 79% 30.23 in 10.0 mi Calm Calm - N/A Snow Light Snow
2:51 AM 3.2 °F - -4.0 °F 72% 30.24 in 10.0 mi Calm Calm - N/A   Overcast
3:03 AM -13.0 °F - -16.6 °F 84% 30.30 in 10.0 mi Calm Calm - N/A   Mostly Cloudy
3:31 AM 1.4 °F - -7.6 °F 66% 30.24 in 10.0 mi Calm Calm - N/A   Scattered Clouds
3:52 AM 1.4 °F - -7.6 °F 66% 30.24 in 10.0 mi Calm Calm - N/A   Mostly Cloudy
4:31 AM 1.4 °F -6.2 °F -5.8 °F 72% 30.22 in 10.0 mi ENE 3.5 mph - N/A   Overcast
4:51 AM 1.4 °F - -5.8 °F 72% 30.22 in 10.0 mi Calm Calm - N/A   Overcast
5:11 AM -0.4 °F - -7.6 °F 72% 30.22 in 10.0 mi Calm Calm - N/A   Mostly Cloudy
5:31 AM -0.4 °F - -7.6 °F 72% 30.21 in 10.0 mi Calm Calm - N/A   Clear
5:51 AM -0.4 °F - -7.6 °F 72% 30.21 in 10.0 mi Calm Calm - N/A   Clear
6:11 AM -0.4 °F - -7.6 °F 72% 30.21 in 10.0 mi Calm Calm - N/A   Clear
6:31 AM -0.4 °F - -7.6 °F 72% 30.22 in 10.0 mi Calm Calm - N/A   Clear
6:51 AM -0.4 °F - -7.6 °F 72% 30.22 in 10.0 mi Calm Calm - N/A   Clear
7:31 AM -0.4 °F - -7.6 °F 72% 30.22 in 10.0 mi Calm Calm - N/A   Clear
7:51 AM 1.4 °F - -7.6 °F 66% 30.22 in 10.0 mi Calm Calm - N/A   Clear
8:11 AM 1.4 °F - -5.8 °F 72% 30.21 in 10.0 mi Calm Calm - N/A   Clear
8:51 AM 5.0 °F - -4.0 °F 66% 30.21 in 10.0 mi Calm Calm - N/A   Overcast
9:11 AM 5.0 °F - -2.2 °F 72% 30.22 in 10.0 mi Calm Calm - N/A   Overcast
9:31 AM 6.8 °F - -0.4 °F 72% 30.22 in 10.0 mi Calm Calm - N/A   Overcast
9:51 AM 8.6 °F - 1.4 °F 73% 30.23 in 10.0 mi Calm Calm - N/A   Overcast
10:11 AM 10.4 °F - 3.2 °F 73% 30.24 in 10.0 mi Calm Calm - N/A   Overcast
10:31 AM 12.2 °F - 3.2 °F 67% 30.23 in 10.0 mi Calm Calm - N/A   Overcast
10:51 AM 14.0 °F - 5.0 °F 67% 30.22 in 10.0 mi Calm Calm - N/A   Overcast
11:11 AM 15.8 °F 7.2 °F 6.8 °F 68% 30.21 in 10.0 mi SSE 5.8 mph - N/A   Overcast
11:31 AM 19.4 °F 11.5 °F 6.8 °F 58% 30.21 in 10.0 mi South 5.8 mph - N/A   Overcast
11:51 AM 19.4 °F - 8.6 °F 63% 30.20 in 10.0 mi Calm Calm - N/A   Overcast
12:11 PM 21.2 °F 16.4 °F 8.6 °F 58% 30.19 in 10.0 mi South 3.5 mph - N/A   Overcast
12:31 PM 21.2 °F - 8.6 °F 58% 30.18 in 10.0 mi Calm Calm - N/A   Overcast
12:51 PM 23.0 °F - 8.6 °F 54% 30.17 in 10.0 mi Calm Calm - N/A   Overcast
1:11 PM 23.0 °F - 8.6 °F 54% 30.17 in 10.0 mi Calm Calm - N/A   Overcast
1:31 PM 23.0 °F - 8.6 °F 54% 30.17 in 10.0 mi Calm Calm - N/A   Overcast
1:51 PM 23.0 °F - 8.6 °F 54% 30.17 in 10.0 mi Calm Calm - N/A   Overcast
2:11 PM 23.0 °F - 8.6 °F 54% 30.16 in 10.0 mi Calm Calm - N/A   Overcast
2:31 PM 23.0 °F - 8.6 °F 54% 30.17 in 10.0 mi Calm Calm - N/A   Overcast
2:51 PM 23.0 °F - 8.6 °F 54% 30.17 in 10.0 mi Calm Calm - N/A   Overcast
3:11 PM 23.0 °F - 8.6 °F 54% 30.17 in 7.0 mi Calm Calm - N/A Snow Light Snow
3:31 PM 23.0 °F - 8.6 °F 54% 30.17 in 10.0 mi Calm Calm - N/A   Overcast
4:11 PM 21.2 °F - 8.6 °F 58% 30.16 in 7.0 mi Calm Calm - N/A Snow Light Snow
4:31 PM 21.2 °F - 10.4 °F 63% 30.16 in 10.0 mi Calm Calm - N/A   Overcast
4:51 PM 21.2 °F - 10.4 °F 63% 30.16 in 7.0 mi Calm Calm - N/A Snow Light Snow
5:11 PM 21.2 °F - 10.4 °F 63% 30.16 in 5.0 mi Calm Calm - N/A Snow Light Snow
5:31 PM 21.2 °F - 12.2 °F 68% 30.16 in 5.0 mi Calm Calm - N/A Snow Light Snow
5:51 PM 21.2 °F - 12.2 °F 68% 30.16 in 4.0 mi Calm Calm - N/A Snow Light Snow
6:11 PM 21.2 °F - 14.0 °F 74% 30.16 in 2.5 mi Calm Calm - N/A Snow Light Snow
6:31 PM 21.2 °F - 14.0 °F 74% 30.16 in 2.5 mi Calm Calm - N/A Snow Light Snow
6:51 PM 21.2 °F - 14.0 °F 74% 30.16 in 3.0 mi Calm Calm - N/A Snow Light Snow
7:11 PM 21.2 °F 16.4 °F 14.0 °F 74% 30.16 in 4.0 mi NNE 3.5 mph - N/A   Overcast
7:31 PM 21.2 °F - 14.0 °F 74% 30.16 in 3.0 mi Calm Calm - N/A Snow Light Snow
7:51 PM 19.4 °F - 14.0 °F 80% 30.16 in 5.0 mi Calm Calm - N/A Snow Light Snow
8:11 PM 19.4 °F - 14.0 °F 80% 30.15 in 2.5 mi Calm Calm - N/A Snow Light Snow
8:31 PM 19.4 °F - 14.0 °F 80% 30.15 in 3.0 mi Calm Calm - N/A Snow Light Snow
8:51 PM 19.4 °F - 14.0 °F 80% 30.15 in 4.0 mi Calm Calm - N/A Snow Light Snow
9:11 PM 19.4 °F - 14.0 °F 80% 30.14 in 5.0 mi Calm Calm - N/A Snow Light Snow
9:31 PM 19.4 °F - 14.0 °F 80% 30.14 in 4.0 mi Calm Calm - N/A Snow Light Snow
9:51 PM 19.4 °F - 14.0 °F 80% 30.13 in 3.0 mi Calm Calm - N/A   Overcast
10:11 PM 19.4 °F - 14.0 °F 80% 30.13 in 4.0 mi Calm Calm - N/A Snow Light Snow
10:31 PM 19.4 °F - 14.0 °F 80% 30.13 in 4.0 mi Calm Calm - N/A Snow Light Snow
10:51 PM 19.4 °F - 14.0 °F 80% 30.13 in 4.0 mi Calm Calm - N/A Snow Light Snow
11:11 PM 19.4 °F - 14.0 °F 80% 30.13 in 5.0 mi Calm Calm - N/A Snow Light Snow
11:31 PM 19.4 °F - 14.0 °F 80% 30.13 in 5.0 mi Calm Calm - N/A Snow Light Snow
11:51 PM 19.4 °F - 14.0 °F 80% 30.13 in 10.0 mi Calm Calm - N/A   Overcast